Location: Cactus School
(34.5700°N, 118.0931°W)
Time: 02:17:32
(UTC-07:00)

Vanguard 1 Rocket - Pass Details

Date: 23 April 2024
Orbit: 650 x 4220 km, 34.3° (Epoch: 22 May)

Event Time Altitude Azimuth Distance (km) Brightness Sun altitude
Rises 01:56:46 0° 272° (W) 4,987 - -40.1°
Reaches altitude 10° 02:00:25 10° 259° (W) 4,462 - -39.9°
Maximum altitude 02:10:07 24° 211° (SSW) 4,483 - -39.1°
Drops below altitude 10° 02:24:45 10° 167° (SSE) 6,811 - -37.7°
Exits shadow 02:28:55 - 160° (SSE) 7,571 11.7 -37.2°
Sets 02:32:41 0° 156° (SSE) 8,240 12.0 -36.8°
